TimeEET,TemperatureF,Dew PointF,Humidity,Sea Level PressureIn,VisibilityMPH,Wind Direction,Wind SpeedMPH,Gust SpeedMPH,PrecipitationIn,Events,Conditions,WindDirDegrees,DateUTC
12:50 AM,57.2,48.2,72,30.06,-9999.0,NE,6.9,-,N/A,,Clear,50,2012-11-08 22:50:00
1:50 AM,59.0,44.6,59,30.04,-9999.0,NNE,9.2,-,N/A,,Clear,30,2012-11-08 23:50:00
2:50 AM,57.2,44.6,63,30.04,-9999.0,NNE,8.1,-,N/A,,Clear,30,2012-11-09 00:50:00
3:50 AM,57.2,44.6,63,30.04,-9999.0,NNE,9.2,-,N/A,,Clear,30,2012-11-09 01:50:00
5:50 AM,46.4,42.8,87,30.04,-9999.0,Variable,2.3,-,N/A,,Clear,0,2012-11-09 03:50:00
6:20 AM,46.4,42.8,87,30.04,-9999.0,Variable,3.5,-,N/A,,Clear,0,2012-11-09 04:20:00
6:50 AM,46.4,42.8,87,30.04,-9999.0,Variable,3.5,-,N/A,,Clear,0,2012-11-09 04:50:00
7:20 AM,44.6,41.0,87,30.04,-9999.0,Calm,Calm,-,N/A,,Clear,0,2012-11-09 05:20:00
7:50 AM,46.4,41.0,81,30.04,-9999.0,Calm,Calm,-,N/A,,Clear,0,2012-11-09 05:50:00
8:20 AM,48.2,41.0,76,30.04,-9999.0,Calm,Calm,-,N/A,,Clear,0,2012-11-09 06:20:00
8:50 AM,53.6,42.8,67,30.04,-9999.0,Calm,Calm,-,N/A,,Clear,0,2012-11-09 06:50:00
9:20 AM,55.4,41.0,58,30.04,-9999.0,Variable,3.5,-,N/A,,Clear,0,2012-11-09 07:20:00
9:50 AM,59.0,42.8,55,30.04,-9999.0,NE,4.6,-,N/A,,Clear,50,2012-11-09 07:50:00
10:20 AM,60.8,46.4,59,30.04,-9999.0,NE,4.6,-,N/A,,Clear,50,2012-11-09 08:20:00
10:50 AM,62.6,42.8,48,30.04,-9999.0,East,4.6,-,N/A,,Clear,80,2012-11-09 08:50:00
11:20 AM,64.4,44.6,49,30.04,-9999.0,Variable,3.5,-,N/A,,Clear,0,2012-11-09 09:20:00
11:50 AM,64.4,42.8,45,30.04,-9999.0,Variable,3.5,-,N/A,,Clear,0,2012-11-09 09:50:00
12:20 PM,64.4,46.4,52,30.01,-9999.0,Variable,3.5,-,N/A,,Clear,0,2012-11-09 10:20:00
12:50 PM,66.2,48.2,52,30.01,-9999.0,Calm,Calm,-,N/A,,Clear,0,2012-11-09 10:50:00
1:20 PM,66.2,48.2,52,30.01,-9999.0,Variable,3.5,-,N/A,,Clear,0,2012-11-09 11:20:00
1:50 PM,66.2,48.2,52,29.98,-9999.0,NNW,4.6,-,N/A,,Clear,330,2012-11-09 11:50:00
2:20 PM,66.2,50.0,56,29.98,-9999.0,WNW,4.6,-,N/A,,Clear,300,2012-11-09 12:20:00
2:50 PM,66.2,50.0,56,29.98,-9999.0,WNW,4.6,-,N/A,,Clear,290,2012-11-09 12:50:00
3:20 PM,68.0,51.8,56,29.98,6.2,West,4.6,-,N/A,,Partly Cloudy,270,2012-11-09 13:20:00
3:50 PM,68.0,51.8,56,29.98,6.2,West,4.6,-,N/A,,Partly Cloudy,270,2012-11-09 13:50:00
4:20 PM,68.0,51.8,56,29.98,6.2,West,4.6,-,N/A,,Partly Cloudy,270,2012-11-09 14:20:00
4:50 PM,64.4,53.6,68,29.98,6.2,Calm,Calm,-,N/A,,Partly Cloudy,0,2012-11-09 14:50:00
5:20 PM,62.6,53.6,72,29.98,6.2,Calm,Calm,-,N/A,,Partly Cloudy,0,2012-11-09 15:20:00
5:50 PM,60.8,55.4,82,29.98,6.2,Calm,Calm,-,N/A,,Partly Cloudy,0,2012-11-09 15:50:00
6:20 PM,59.0,55.4,88,29.98,6.2,Calm,Calm,-,N/A,,Partly Cloudy,0,2012-11-09 16:20:00
6:50 PM,57.2,53.6,88,29.98,6.2,Calm,Calm,-,N/A,,Partly Cloudy,0,2012-11-09 16:50:00
7:20 PM,57.2,53.6,88,29.98,6.2,Calm,Calm,-,N/A,,Partly Cloudy,0,2012-11-09 17:20:00
7:50 PM,55.4,51.8,88,29.98,6.2,Calm,Calm,-,N/A,,Partly Cloudy,0,2012-11-09 17:50:00
8:50 PM,53.6,50.0,88,29.98,6.2,Calm,Calm,-,N/A,,Partly Cloudy,0,2012-11-09 18:50:00
9:50 PM,53.6,50.0,88,29.98,6.2,Calm,Calm,-,N/A,,Partly Cloudy,0,2012-11-09 19:50:00
10:50 PM,51.8,48.2,88,29.98,6.2,Calm,Calm,-,N/A,,Partly Cloudy,0,2012-11-09 20:50:00
11:50 PM,50.0,48.2,94,29.98,6.2,Calm,Calm,-,N/A,,Partly Cloudy,0,2012-11-09 21:50:00